IBE6464 SEQM-SEGU

Flight info

Callsign IBE6464
Flight time 0h 32m
Altitude 22000
Route TEMOX3A TEMOX TEMOX2
Aircraft A346/H-SDE2E3FGHIJ3J4J5M1RWXY/LB1D1

Departure

Time 2026-05-05 11:37
Airport Mariscal Sucre International Airport (SEQM)

Arrival

Time 2026-05-05 12:09
Airport José Joaquín de Olmedo International Airport (SEGU)
Time Latitude Longitude Altitude Speed Heading
2026-05-05 11:14 -0.12432 -78.35921 8045 ft 0 kts 269°
2026-05-05 11:25 -0.12432 -78.35914 8045 ft 2 kts 263°
2026-05-05 11:26 -0.12429 -78.35899 8045 ft 2 kts 258°
2026-05-05 11:26 -0.12426 -78.35884 8045 ft 2 kts 259°
2026-05-05 11:26 -0.12423 -78.35870 8045 ft 2 kts 261°
2026-05-05 11:26 -0.12422 -78.35854 8045 ft 2 kts 284°
2026-05-05 11:27 -0.12430 -78.35842 8045 ft 2 kts 324°
2026-05-05 11:27 -0.12442 -78.35836 8045 ft 1 kts 356°
2026-05-05 11:27 -0.12448 -78.35836 8045 ft 0 kts 358°
2026-05-05 11:29 -0.12442 -78.35836 8045 ft 4 kts 358°
2026-05-05 11:30 -0.12397 -78.35834 8045 ft 6 kts 22°
2026-05-05 11:30 -0.12367 -78.35792 8045 ft 11 kts 74°
2026-05-05 11:30 -0.12357 -78.35661 8045 ft 19 kts 88°
2026-05-05 11:30 -0.12412 -78.35612 8045 ft 11 kts 182°
2026-05-05 11:31 -0.12542 -78.35608 8046 ft 27 kts 178°
2026-05-05 11:31 -0.12737 -78.35600 8048 ft 27 kts 178°
2026-05-05 11:31 -0.12926 -78.35593 8049 ft 26 kts 177°
2026-05-05 11:31 -0.13110 -78.35585 8050 ft 26 kts 178°
2026-05-05 11:32 -0.13292 -78.35577 8052 ft 25 kts 177°
2026-05-05 11:32 -0.13470 -78.35569 8053 ft 25 kts 178°
2026-05-05 11:32 -0.13649 -78.35562 8054 ft 26 kts 178°
2026-05-05 11:32 -0.13835 -78.35555 8055 ft 26 kts 177°
2026-05-05 11:33 -0.14020 -78.35548 8057 ft 26 kts 178°
2026-05-05 11:33 -0.14200 -78.35539 8058 ft 21 kts 168°
2026-05-05 11:33 -0.14242 -78.35511 8059 ft 0 kts 120°
2026-05-05 11:35 -0.14255 -78.35477 8059 ft 22 kts 101°
2026-05-05 11:35 -0.14232 -78.35365 8060 ft 9 kts 21°
2026-05-05 11:36 -0.14162 -78.35369 8059 ft 8 kts 358°
2026-05-05 11:36 -0.14158 -78.35369 8059 ft 0 kts 358°
2026-05-05 11:36 -0.14155 -78.35369 8059 ft 5 kts 358°
2026-05-05 11:36 -0.13865 -78.35381 8057 ft 75 kts 358°
2026-05-05 11:37 -0.13130 -78.35413 8052 ft 135 kts 357°
2026-05-05 11:37 -0.11990 -78.35460 8044 ft 185 kts 358°
2026-05-05 11:37 -0.10615 -78.35517 8296 ft 205 kts 358°
2026-05-05 11:37 -0.09172 -78.35586 8794 ft 208 kts 357°
2026-05-05 11:38 -0.07713 -78.35666 9362 ft 210 kts 353°
2026-05-05 11:38 -0.06293 -78.35990 9870 ft 209 kts 342°
2026-05-05 11:38 -0.04884 -78.36491 10063 ft 220 kts 340°
2026-05-05 11:38 -0.03412 -78.37040 10265 ft 230 kts 341°
2026-05-05 11:39 -0.01867 -78.37582 10481 ft 239 kts 341°
2026-05-05 11:39 -0.00280 -78.38178 10691 ft 249 kts 340°
2026-05-05 11:39 0.01394 -78.38815 10936 ft 261 kts 340°
2026-05-05 11:39 0.03146 -78.39478 11149 ft 278 kts 341°
2026-05-05 11:40 0.05016 -78.40179 11467 ft 293 kts 341°
2026-05-05 11:40 0.07001 -78.40868 11775 ft 308 kts 342°
2026-05-05 11:40 0.09043 -78.41730 12051 ft 325 kts 327°
2026-05-05 11:40 0.10669 -78.43378 12298 ft 344 kts 303°
2026-05-05 11:41 0.11648 -78.45592 12561 ft 361 kts 290°
2026-05-05 11:41 0.12508 -78.48012 12890 ft 377 kts 290°
2026-05-05 11:41 0.13403 -78.50511 13298 ft 389 kts 290°
2026-05-05 11:41 0.14342 -78.53041 13930 ft 393 kts 291°
2026-05-05 11:42 0.15116 -78.55669 14422 ft 400 kts 276°
2026-05-05 11:42 0.14879 -78.58459 14955 ft 405 kts 254°
2026-05-05 11:42 0.13695 -78.61008 15554 ft 408 kts 234°
2026-05-05 11:42 0.11733 -78.63011 16145 ft 409 kts 215°
2026-05-05 11:43 0.09190 -78.64335 16632 ft 413 kts 201°
2026-05-05 11:43 0.06584 -78.65587 17193 ft 418 kts 213°
2026-05-05 11:43 0.04305 -78.67394 17775 ft 422 kts 219°
2026-05-05 11:43 0.02045 -78.69263 18337 ft 425 kts 218°
2026-05-05 11:44 -0.00328 -78.71135 18866 ft 429 kts 217°
2026-05-05 11:44 -0.02707 -78.72933 19413 ft 433 kts 216°
2026-05-05 11:44 -0.05140 -78.74722 19946 ft 436 kts 215°
2026-05-05 11:44 -0.07604 -78.76506 20440 ft 440 kts 215°
2026-05-05 11:45 -0.10128 -78.78312 20965 ft 444 kts 214°
2026-05-05 11:45 -0.12649 -78.80109 21463 ft 447 kts 214°
2026-05-05 11:45 -0.15178 -78.81909 21830 ft 450 kts 214°
2026-05-05 11:45 -0.17734 -78.83726 21971 ft 452 kts 214°
2026-05-05 11:46 -0.20298 -78.85548 21959 ft 451 kts 214°
2026-05-05 11:46 -0.22860 -78.87369 21934 ft 452 kts 214°
2026-05-05 11:46 -0.25439 -78.89201 21905 ft 451 kts 214°
2026-05-05 11:46 -0.28002 -78.91022 22030 ft 457 kts 214°
2026-05-05 11:47 -0.30617 -78.92882 22242 ft 456 kts 214°
2026-05-05 11:47 -0.33186 -78.94707 22246 ft 454 kts 214°
2026-05-05 11:47 -0.35774 -78.96544 22253 ft 454 kts 214°
2026-05-05 11:47 -0.38355 -78.98377 22254 ft 454 kts 214°
2026-05-05 11:48 -0.43518 -79.02045 22266 ft 453 kts 214°
2026-05-05 11:48 -0.46083 -79.03870 22265 ft 453 kts 214°
2026-05-05 11:48 -0.48661 -79.05701 22267 ft 453 kts 215°
2026-05-05 11:49 -0.51234 -79.07533 22267 ft 454 kts 214°
2026-05-05 11:49 -0.53793 -79.09354 22262 ft 453 kts 214°
2026-05-05 11:49 -0.56404 -79.11166 22255 ft 453 kts 212°
2026-05-05 11:49 -0.59069 -79.12807 22234 ft 452 kts 208°
2026-05-05 11:50 -0.61865 -79.14295 22226 ft 452 kts 204°
2026-05-05 11:50 -0.64738 -79.15653 22201 ft 452 kts 204°
2026-05-05 11:50 -0.67568 -79.16962 22209 ft 451 kts 203°
2026-05-05 11:50 -0.70439 -79.18286 22180 ft 451 kts 204°
2026-05-05 11:51 -0.73281 -79.19598 21999 ft 446 kts 204°
2026-05-05 11:51 -0.76121 -79.20915 21265 ft 450 kts 204°
2026-05-05 11:51 -0.78958 -79.22231 20563 ft 453 kts 204°
2026-05-05 11:51 -0.81801 -79.23552 20095 ft 449 kts 204°
2026-05-05 11:52 -0.84650 -79.24876 19618 ft 444 kts 204°
2026-05-05 11:52 -0.87439 -79.26172 19198 ft 440 kts 204°
2026-05-05 11:52 -0.90209 -79.27462 18749 ft 435 kts 204°
2026-05-05 11:52 -0.92934 -79.28729 18347 ft 430 kts 204°
2026-05-05 11:53 -0.95627 -79.29982 17942 ft 426 kts 204°
2026-05-05 11:53 -0.98298 -79.31224 17539 ft 421 kts 204°
2026-05-05 11:53 -1.00964 -79.32462 17132 ft 418 kts 204°
2026-05-05 11:53 -1.03592 -79.33685 16710 ft 414 kts 204°
2026-05-05 11:54 -1.06225 -79.34909 16267 ft 411 kts 204°
2026-05-05 11:54 -1.08815 -79.36114 15860 ft 406 kts 204°
2026-05-05 11:54 -1.11367 -79.37301 15461 ft 404 kts 204°
2026-05-05 11:54 -1.13897 -79.38477 15019 ft 402 kts 204°
2026-05-05 11:55 -1.16439 -79.39659 14579 ft 399 kts 204°
2026-05-05 11:55 -1.18975 -79.40838 14186 ft 396 kts 204°
2026-05-05 11:55 -1.21450 -79.41988 13752 ft 393 kts 204°
2026-05-05 11:55 -1.23918 -79.43136 13343 ft 391 kts 204°
2026-05-05 11:56 -1.26404 -79.44292 12920 ft 389 kts 204°
2026-05-05 11:56 -1.28876 -79.45442 12468 ft 386 kts 204°
2026-05-05 11:56 -1.31311 -79.46575 12014 ft 383 kts 204°
2026-05-05 11:56 -1.33706 -79.47691 11603 ft 380 kts 204°
2026-05-05 11:57 -1.36119 -79.48814 11335 ft 378 kts 204°
2026-05-05 11:57 -1.38520 -79.49930 11001 ft 379 kts 204°
2026-05-05 11:57 -1.40911 -79.51042 10670 ft 376 kts 204°
2026-05-05 11:57 -1.43252 -79.52132 10509 ft 369 kts 204°
2026-05-05 11:58 -1.45571 -79.53213 10173 ft 362 kts 204°
2026-05-05 11:58 -1.47837 -79.54268 9921 ft 350 kts 205°
2026-05-05 11:58 -1.50025 -79.55287 9779 ft 335 kts 205°
2026-05-05 11:58 -1.52102 -79.56255 9675 ft 320 kts 205°
2026-05-05 11:59 -1.54077 -79.57173 9607 ft 307 kts 205°
2026-05-05 11:59 -1.56007 -79.58070 9304 ft 304 kts 205°
2026-05-05 11:59 -1.57925 -79.58959 8999 ft 301 kts 205°
2026-05-05 11:59 -1.59824 -79.59841 8700 ft 298 kts 205°
2026-05-05 12:00 -1.61686 -79.60706 8406 ft 295 kts 205°
2026-05-05 12:00 -1.63554 -79.61575 8104 ft 292 kts 205°
2026-05-05 12:00 -1.65394 -79.62429 7804 ft 290 kts 205°
2026-05-05 12:00 -1.67219 -79.63277 7504 ft 287 kts 205°
2026-05-05 12:01 -1.69030 -79.64120 7207 ft 285 kts 205°
2026-05-05 12:01 -1.70823 -79.64955 6912 ft 283 kts 205°
2026-05-05 12:01 -1.72588 -79.65776 6622 ft 281 kts 205°
2026-05-05 12:01 -1.74359 -79.66599 6330 ft 279 kts 205°
2026-05-05 12:02 -1.76120 -79.67419 6019 ft 277 kts 205°
2026-05-05 12:02 -1.77942 -79.68046 5698 ft 274 kts 192°
2026-05-05 12:02 -1.79803 -79.68417 5394 ft 272 kts 190°
2026-05-05 12:02 -1.81641 -79.68911 5086 ft 271 kts 201°
2026-05-05 12:03 -1.83336 -79.69708 4801 ft 269 kts 208°
2026-05-05 12:03 -1.84964 -79.70635 4528 ft 268 kts 211°
2026-05-05 12:03 -1.86574 -79.71580 4249 ft 266 kts 211°
2026-05-05 12:03 -1.88173 -79.72533 4082 ft 269 kts 210°
2026-05-05 12:04 -1.89820 -79.73492 4071 ft 272 kts 210°
2026-05-05 12:04 -1.91442 -79.74426 4069 ft 266 kts 210°
2026-05-05 12:04 -1.93022 -79.75335 4056 ft 252 kts 209°
2026-05-05 12:04 -1.94518 -79.76198 4054 ft 246 kts 210°
2026-05-05 12:05 -1.96012 -79.77042 4007 ft 241 kts 211°
2026-05-05 12:05 -1.97445 -79.77875 3797 ft 236 kts 209°
2026-05-05 12:05 -1.98869 -79.78690 3491 ft 233 kts 210°
2026-05-05 12:05 -2.00273 -79.79485 3190 ft 230 kts 210°
2026-05-05 12:06 -2.01654 -79.80278 2894 ft 227 kts 211°
2026-05-05 12:06 -2.03020 -79.81070 2586 ft 223 kts 211°
2026-05-05 12:06 -2.04318 -79.81817 2273 ft 207 kts 210°
2026-05-05 12:06 -2.05509 -79.82501 2050 ft 191 kts 210°
2026-05-05 12:07 -2.06641 -79.83151 1814 ft 179 kts 210°
2026-05-05 12:07 -2.07693 -79.83753 1589 ft 168 kts 210°
2026-05-05 12:07 -2.08708 -79.84335 1388 ft 166 kts 210°
2026-05-05 12:07 -2.09705 -79.84905 1187 ft 165 kts 210°
2026-05-05 12:08 -2.10711 -79.85481 971 ft 163 kts 210°
2026-05-05 12:08 -2.11691 -79.86044 755 ft 161 kts 211°
2026-05-05 12:08 -2.12655 -79.86598 546 ft 159 kts 211°
2026-05-05 12:08 -2.13610 -79.87144 345 ft 156 kts 211°
2026-05-05 12:09 -2.14555 -79.87683 147 ft 154 kts 211°
2026-05-05 12:09 -2.15463 -79.88207 42 ft 136 kts 210°
2026-05-05 12:09 -2.16102 -79.88574 42 ft 69 kts 210°
2026-05-05 12:09 -2.16357 -79.88723 42 ft 23 kts 213°
2026-05-05 12:10 -2.16378 -79.88738 42 ft 5 kts 212°
2026-05-05 12:10 -2.16485 -79.88792 42 ft 30 kts 214°
2026-05-05 12:10 -2.16680 -79.88906 42 ft 27 kts 210°
2026-05-05 12:10 -2.16796 -79.88989 42 ft 9 kts 260°
2026-05-05 12:11 -2.16755 -79.89040 42 ft 11 kts 355°
2026-05-05 12:11 -2.16665 -79.89007 42 ft 16 kts 28°
2026-05-05 12:11 -2.16545 -79.88937 42 ft 25 kts 30°
2026-05-05 12:11 -2.16370 -79.88837 42 ft 30 kts 30°
2026-05-05 12:12 -2.16190 -79.88733 42 ft 28 kts 30°
2026-05-05 12:12 -2.16019 -79.88635 42 ft 27 kts 30°
2026-05-05 12:12 -2.15850 -79.88537 42 ft 27 kts 30°
2026-05-05 12:12 -2.15680 -79.88438 42 ft 28 kts 31°
2026-05-05 12:13 -2.15506 -79.88339 42 ft 28 kts 30°
2026-05-05 12:13 -2.15332 -79.88238 42 ft 27 kts 30°
2026-05-05 12:13 -2.15237 -79.88265 42 ft 16 kts 300°
2026-05-05 12:13 -2.15166 -79.88386 42 ft 11 kts 319°
2026-05-05 12:14 -2.15093 -79.88377 42 ft 13 kts 26°
2026-05-05 12:14 -2.15006 -79.88328 42 ft 11 kts 30°
2026-05-05 12:14 -2.14911 -79.88271 42 ft 18 kts 32°
2026-05-05 12:14 -2.14854 -79.88275 42 ft 0 kts 290°
2026-05-05 12:15 -2.14849 -79.88287 42 ft 0 kts 297°
2026-05-05 12:15 -2.14848 -79.88289 42 ft 0 kts 300°
2026-05-05 12:15 -2.14847 -79.88290 42 ft 0 kts 300°